Flag for Peru Weather past 2 weeks in Trujillo, La Libertad, Peru

Now
63 °F

Overcast.


Feels Like: 63 °F
Forecast: 62 / 76 °F
Wind: 9 mph from Southeast

Location: Trujillo Airport

Current Time: Jul 26, 2014 at 3:11:03 AM

Latest Report: Jul 26, 2014 at 2:00 AM


Visibility: 4 mi

Pressure: 29.98 "Hg

Humidity: 83%

Dew point: 57 °F

Location of TrujilloLocation

Historic Weather in Trujillo — Graph

°F

Trujillo temperature yesterday

Maximum temperature yesterday: 68 °F (at 1:00 PM)
Minimum temperature yesterday: 61 °F (at 2:00 AM)
Average temperature yesterday: 64 °F

Past Weeks' High & Low Weather Summary

 TemperatureHumidityPressure
High72 °F (Jul 16, 2:00 PM)94% (Jul 19, 3:00 AM)30.01 "Hg (Jul 19, 3:00 AM)
Low59 °F (Jul 17, 6:00 AM)61% (Jul 16, 2:00 PM)29.77 "Hg (Jul 11, 4:00 PM)
Average64 °F84%29.92 "Hg
* Reported Jul 11 2:00 AM — Jul 26 2:00 AM, Trujillo, Weather by CustomWeather, © 2014

Note: Actual official high and low records may vary slightly from our data, if they occured in-between our weather recording intervals... More about our weather records

Advertising

Trujillo weather history for previous 24 hours

 ConditionsComfort  
Time TempWeatherWind HumidityBarometerVisibility
2:00 AM
Jul 26
63 °FOvercast.9 mph83%29.98 "Hg4 mi
1:00 AM63 °FMostly cloudy.7 mph88%30.01 "Hg4 mi
12:00 AM63 °FMostly cloudy.9 mph88%30.01 "Hg4 mi
11:00 PM
Jul 25
63 °FMostly cloudy.9 mph88%29.98 "Hg4 mi
10:00 PM63 °FMostly cloudy.9 mph88%29.98 "Hg4 mi
9:00 PM63 °FPartly cloudy.8 mph88%29.98 "Hg4 mi
8:00 PM63 °FPartly cloudy.10 mph88%29.95 "Hg4 mi
7:00 PM63 °FPartly cloudy.9 mph88%29.92 "Hg5 mi
6:00 PM64 °FScattered clouds.8 mph83%29.89 "Hg5 mi
5:00 PM64 °FPartly sunny.8 mph83%29.89 "Hg5 mi
4:00 PM66 °FClear.9 mph78%29.86 "Hg5 mi
3:00 PM66 °FClear.N/A78%29.89 "Hg6 mi
2:00 PM68 °FClear.14 mph73%29.92 "Hg5 mi
1:00 PM68 °FBroken clouds.14 mph73%29.95 "HgN/A
12:00 PM66 °FBroken clouds.13 mph78%29.95 "HgN/A
11:00 AM64 °FBroken clouds.12 mph83%29.98 "Hg5 mi
10:00 AM66 °FOvercast.7 mph78%29.98 "Hg5 mi
9:00 AM64 °FMostly cloudy.5 mph83%29.98 "HgN/A
8:00 AM64 °FMostly cloudy.2 mph83%29.95 "Hg5 mi
7:00 AM63 °FOvercast.5 mph83%29.92 "Hg4 mi
6:00 AM63 °FFog.6 mph83%29.92 "Hg3 mi
5:00 AM61 °FFog.6 mph88%29.89 "Hg3 mi
4:00 AM61 °FFog.7 mph88%29.89 "Hg3 mi
3:00 AM61 °FFog.7 mph88%29.86 "Hg3 mi
Weather by CustomWeather, © 2014

See weather overviewHow to use our weather pages